Retour au catalogue

STARLINK-11155

ActifCommunicationsVLEO
NORAD 60046·PAYLOAD·🇺🇸 United States

Lancé Jun 8, 2024 depuis Vandenberg Space Force Base

Loading…

Prochains Passages (prochaines 24 heures)

TLE

FraisSource: CelesTrak SupGP

Époque: Sep 14, 2026, 14:26 UTC

1 60046C 24112J   26257.60187500 -.00013847  00000+0 -11403-3 0  2578
2 60046  53.1571  54.8754 0001026  80.5490 275.1632 15.69722873    15

Suivez STARLINK-11155 en temps réel avec AllMySat

Download on the App Store